Regional Weather Roundup
Issued by NWS

Home | Current Version | Previous Version | Text Only | Print | Product List | Glossary Off
Versions: 1 2 3 4 5 6 7 8 9 10 11 12 13 14 15 16 17 18 19 20 21 22 23 24 25 26 27 28 29 30 31 32 33 34 35 36 37 38 39 40 41 42 43 44 45 46 47 48 49 50

000
ASUS45 KSLC 050110
RWRUT

UTAH REGIONAL WEATHER ROUNDUP
NATIONAL WEATHER SERVICE SALT LAKE CITY UT
700 PM MDT MON MAY 04 2015

UTZ001>011-023>025-050200-

NORTHERN UTAH

CITY           SKY/WX    TMP DP  RH WIND       PRES   REMARKS
BRIGHAM CITY   CLOUDY    61  46  56 SE8       29.88F
HILL AFB       PTSUNNY   62  43  49 E12       29.87F
LOGAN          LGT RAIN  62  46  55 VRB5      29.91R
OGDEN          CLOUDY    66  41  40 NE10      29.85F
PROVO AIRPORT  PTSUNNY   66  46  48 W7        29.86S
SALT LAKE CITY PTSUNNY   70  38  31 VRB5      29.83F
VERNAL         PTSUNNY   63  39  41 NW14      29.92S
WENDOVER       CLOUDY    72  32  23 W8        29.84R
HEBER CITY     PTSUNNY   63  37  39 E9        29.92S
WEST JORDAN    SUNNY     64  48  55 NW5       29.85F

$$

UTZ012>022-026-027-050200-

SOUTHERN/CENTRAL UTAH

CITY           SKY/WX    TMP DP  RH WIND       PRES   REMARKS
BLANDING       CLOUDY    63  37  37 CALM      30.00S
BRYCE CANYON   CLOUDY    47  42  83 N13       30.01F
CEDAR CITY     CLOUDY    57  42  57 S8        29.92S
DELTA          CLOUDY    67  38  34 W9        29.88R
HANKSVILLE     CLOUDY    64  41  42 W13       29.88F
MILFORD        PTSUNNY   67  39  35 W14       29.87R
MOAB/CYNLANDS  SUNNY     67  42  40 SE7       29.84R
PRICE          PTSUNNY   68  35  29 SE9       29.89S
ST GEORGE      MOCLDY    75  39  27 SW17      29.81S
KANAB          PTSUNNY   61  43  51 SW12      29.94R

$$

REGIONAL REPORTS     COLORADO/ARIZONA

CITY           SKY/WX    TMP DP  RH WIND       PRES   REMARKS
CRAIG, CO      MOSUNNY   61  39  44 N10       29.98F
GRAND JUNCTION MOSUNNY   66  40  38 E7        29.88S
RIFLE          CLOUDY    60  42  51 SW5       29.94S
MONTROSE       CLOUDY    57  43  59 SE15      29.99R
CORTEZ         LGT RAIN  55  45  68 SW12      29.98R
PAGE, AZ       MOSUNNY   71  39  31 VRB3      29.84F
GRAND CANYON   MOSUNNY   51  41  68 NW7       29.99R
KINGMAN        CLOUDY    64  45  49 SE12      29.89F
FLAGSTAFF      LGT RAIN  49  41  74 VRB3      29.98F

$$

REGIONAL REPORTS    NEVADA/IDAHO/WYOMING

CITY           SKY/WX    TMP DP  RH WIND       PRES   REMARKS
LAS VEGAS, NV  CLOUDY    75  40  28 S10       29.75S
ELY            PTSUNNY   59  35  40 SW3       29.96F
ELKO           CLOUDY    63  36  36 SW20G32   29.89R
POCATELLO, ID  MOSUNNY   73  29  19 S13       29.85F
BURLEY         PTSUNNY   65  43  44 SW5       29.81F
EVANSTON, WY   PTSUNNY   54  38  54 E5        30.01F
ROCK SPRINGS   CLOUDY    60  31  33 W6        29.99S
KEMMERER       CLOUDY    54  36  50 NW6       30.03S

$$



USA.gov is the U.S. government's official web portal to all federal, state and local government web resources and services.